#timestamp,LO_Frequency,Hit,StdDev 
1564729215.2,286047003.8,N
1564729235.0,286046998.7,N
1564729235.9,286046998.7,N
1564729255.8,286046995.8,N
1564729275.6,286046990.4,N
1564729295.5,286046990.5,N
1564729315.3,286046993.9,N
1564729335.1,286046993.5,N
1564729355.9,286046996.1,N
1564729375.7,286046998.8,N
1564729395.5,286046999.9,N
1564729415.4,286047001.6,N
1564729435.2,286047004.3,N
1564729455.0,286047003.8,N
1564729456.0,286047003.8,N
1564729475.8,286047007.5,N
1564729495.6,286047004.9,N
1564729515.5,286047004.1,N
1564729535.3,286046992.4,N
1564729555.1,286046984.4,Y
1564729575.9,286046979.1,P
1564729595.7,286046980.3,N
1564729615.6,286046979.0,N
1564729635.4,286046977.4,N
1564729655.2,286046985.2,N
1564729675.1,286046987.0,N
1564729676.0,286046987.0,N
1564729695.8,286046996.3,N
1564729715.6,286047001.5,N
1564729735.5,286047006.8,N
1564729755.3,286047008.3,N
1564729775.2,286047006.8,N
1564729795.0,286047004.7,N
1564729795.9,286047004.7,N
1564729815.8,286047004.7,N
1564729835.6,286047007.4,N
1564729855.4,286047005.6,N
1564729875.3,286047001.4,N
1564729895.1,286046999.8,N
1564729915.8,286046999.6,N
1564729935.7,286046995.0,N
1564729955.5,286046996.2,N
1564729975.4,286046996.1,N
1564729995.2,286046996.5,N
1564730015.0,286046997.4,N
1564730015.9,286046997.4,N
1564730035.8,286046992.8,N
1564730055.6,286046990.9,N
1564730075.4,286046987.3,N
1564730095.3,286046990.0,N
1564730115.1,286046991.2,N
1564730135.9,286046994.6,N
1564730155.7,286046999.2,N
1564730175.5,286047000.6,N
1564730195.6,286047003.6,N
1564730215.4,286047003.1,N
1564730235.3,286047004.1,N
1564730255.1,286047001.7,N
1564730275.8,286047001.6,N
1564730295.7,286047001.7,N
1564730315.5,286047004.4,N
1564730335.4,286047001.5,N
1564730355.2,286047002.7,N
1564730375.0,286046998.1,N
1564730375.9,286046998.1,N
1564730395.8,286046996.3,N
1564730415.6,286046990.6,N
1564730435.5,286046989.9,N
1564730455.3,286046985.6,Y
1564730475.1,286046985.3,P
1564730495.9,286046982.8,N
1564730515.7,286046983.5,N
1564730535.6,286046984.3,N
1564730555.4,286046987.3,N
1564730575.2,286046989.8,N
1564730595.1,286046988.6,N
1564730596.0,286046988.6,N
1564730615.8,286046988.5,N
1564730635.6,286046990.6,N
1564730655.5,286046989.5,N
1564730675.3,286046985.8,Y
1564730695.2,286046997.2,P
1564730715.0,286046998.7,N
1564730715.9,286046998.7,N
1564730735.7,286046997.8,N
1564730755.6,286046993.7,N
1564730775.4,286046996.4,N
1564730795.3,286046990.4,N
1564730815.1,286046990.0,N
1564730835.8,286046989.1,N
1564730855.7,286046990.6,N
1564730875.5,286046996.6,N
1564730895.4,286047002.2,N
1564730915.2,286047008.5,N
1564730935.0,286047006.4,N
1564730935.9,286047006.4,N
1564730955.8,286047007.2,N
1564730975.6,286047007.4,N
1564730995.4,286047001.3,N
1564731015.3,286047002.4,N
1564731035.1,286047000.2,N
1564731055.9,286046997.5,N
1564731075.7,286046994.6,N
1564731095.5,286046986.9,N
1564731115.4,286046980.6,Y
1564731135.2,286046979.4,P
1564731155.1,286046973.1,N
1564731156.0,286046973.1,N
1564731175.8,286046963.3,Y
1564731195.6,286046978.5,P
1564731215.5,286046978.5,P
1564731235.3,286046977.2,P
1564731255.2,286046974.5,Y
1564731275.9,286046996.4,P
1564731295.7,286046996.4,N
1564731315.6,286046994.5,N
1564731335.4,286046996.3,N
1564731355.3,286046988.5,N
1564731375.1,286046988.8,N
1564731376.0,286046988.8,N
1564731395.8,286046988.9,N
1564731415.7,286046993.2,N
1564731435.5,286046992.4,N
1564731455.3,286046992.3,N
1564731475.2,286046990.4,N
1564731495.0,286046985.6,Y
1564731495.9,286046985.6,P
1564731515.8,286046997.5,N
1564731535.6,286046998.8,N
1564731555.4,286046998.2,N
1564731575.3,286047002.0,N
1564731595.1,286047005.6,N
1564731615.9,286047006.9,N
1564731635.7,286047009.1,N
1564731655.5,286047008.6,N
1564731675.4,286047004.6,N
1564731695.2,286046997.3,N
1564731715.1,286046991.2,N
1564731716.0,286046991.2,N
1564731735.8,286046990.0,N
1564731755.6,286046991.2,N
1564731775.5,286046988.6,N
1564731795.3,286046987.2,N
1564731815.1,286046984.2,N
1564731835.9,286046984.1,N
1564731855.7,286046985.0,N
1564731875.6,286046979.2,N
1564731895.4,286046974.9,N
1564731915.2,286046974.0,N
1564731935.1,286046966.8,Y
1564731936.0,286046966.8,P
1564731955.8,286046972.1,N
1564731975.7,286046970.2,N
1564731995.5,286046968.7,Y
1564732015.3,286046996.4,P
1564732035.2,286046994.3,N
1564732055.0,286046996.4,N
1564732055.9,286046996.4,N
1564732075.8,286046999.0,N
1564732095.6,286046995.6,N
1564732115.4,286046996.0,N
1564732135.3,286046998.0,N
1564732155.1,286046996.1,N
1564732175.8,286046994.0,N
1564732195.7,286046987.2,N
1564732215.5,286046982.5,N
1564732235.4,286046981.4,N
1564732255.2,286046981.8,N
1564732275.1,286046981.1,N
1564732276.0,286046981.1,N
1564732295.8,286046979.0,N
1564732315.6,286046980.1,N
1564732335.5,286046974.8,Y
1564732355.3,286046985.8,P
1564732375.1,286046989.5,P
1564732395.9,286046992.3,P
1564732415.7,286046992.4,Y
1564732435.6,286047009.7,P
1564732455.4,286047013.6,N
1564732475.2,286047014.2,N
1564732495.1,286047018.8,N
1564732496.0,286047018.8,N
1564732515.8,286047018.6,N
1564732535.6,286047019.5,N
1564732555.5,286047014.7,N
1564732575.3,286047006.3,N
1564732595.2,286047000.2,N
1564732615.9,286046993.8,N
1564732635.7,286046988.5,N
1564732655.6,286046986.4,N
1564732675.4,286046983.1,N
1564732695.3,286046979.1,N
1564732715.1,286046978.6,N
1564732716.0,286046978.6,N
1564732735.8,286046976.4,N
1564732755.7,286046974.7,N
1564732775.5,286046976.7,N
1564732795.4,286046972.7,N
